Location: Arrodets-la-Barthe
(43.0306°N, 0.2829°E)
Time: 12:48:20
(UTC+00:00)

Cosmos 2333 Rocket - Pass Details

Date: 24 October 2021
Orbit: 837 x 865 km, 70.8° (Epoch: 07 December)

Event Time Altitude Azimuth Distance (km) Brightness Sun altitude
Rises 20:02:46 0° 221° (SW) 3,384 5.6 -33.5°
Reaches altitude 10° 20:05:18 10° 227° (SW) 2,457 4.9 -33.9°
Enters shadow 20:09:39 42° 270° (W) 1,197 3.2 -34.7°
